Tracking 28790 objects as of 19-Apr-2024
HD Live streaming from Space Station
objects crossing your sky now

DMSP 5D-3 F17 DEB

Track DMSP 5D-3 F17 DEB now!
10-day predictions


NORAD ID: 29524
Int'l Code: 2006-050C
Perigee: 813.5 km
Apogee: 819.8 km
Inclination: 98.6 °
Period: 101.1 minutes
Semi major axis: 7187 km
RCS: 0.052 m2 (small)
Launch date: November 4, 2006
Source: United States (US)
Launch site: AIR FORCE WESTERN TEST RANGE (AFWTR)

Note: This is SATELLITE DEBRIS
Your satellite tracking list
Your tracking list is empty




NASA's NSSDC Master Catalog

Two Line Element Set (TLE):
1 29524U 06050C   24109.63135855  .00005281  00000-0  22866-2 0  9997
2 29524  98.6033 132.6790 0004333 317.7720 157.9917 14.24698895903299
Source of the keplerian elements: AFSPC